Overview Statistics Trail Chart Weather Telemetry Raw packets
 

This is the latest recevied weather packets stored in our database for station/object ALANSN-2. If no packets are shown the sender has not sent any weather packets the latest 10 day(s).

<< 1 2 3 4 5 6 7 >>
Time Temp. Humidity Pressure Rain* Wind** Luminosity Snow
1788555420 21.11° C 89% 1026.3 hPa 0 mm - 77 W/m² -
1788555119 21.11° C 89% 1026.3 hPa 0 mm - 77 W/m² -
1788554842 21.11° C 88% 1026.3 hPa 0 mm - 73 W/m² -
1788554518 21.11° C 90% 1026.2 hPa 0 mm - 70 W/m² -
1788554218 21.11° C 89% 1026.2 hPa 0 mm - 69 W/m² -
1788553918 21.11° C 89% 1026.5 hPa 0 mm - 61 W/m² -
1788553620 21.11° C 89% 1026.6 hPa 0 mm - 63 W/m² -
1788553319 21.11° C 89% 1026.7 hPa 0 mm - 57 W/m² -
1788553022 21.11° C 89% 1026.5 hPa 0 mm - 57 W/m² -
1788552720 21.11° C 88% 1026.5 hPa 0 mm - 67 W/m² -
1788552419 21.11° C 88% 1026.3 hPa 0 mm - 91 W/m² -
1788552119 21.11° C 88% 1026.4 hPa 0 mm - 101 W/m² -
1788551820 21.11° C 88% 1026.4 hPa 0 mm - 102 W/m² -
1788551519 21.11° C 89% 1026.4 hPa 0 mm - 86 W/m² -
1788551218 21.11° C 89% 1026.3 hPa 0 mm - 85 W/m² -
1788550919 20.56° C 88% 1026.3 hPa 0 mm - 81 W/m² -
1788550620 20.56° C 88% 1026.6 hPa 0 mm - 74 W/m² -
1788550319 20.56° C 88% 1026.4 hPa 0 mm - 72 W/m² -
1788550020 20.56° C 87% 1026.5 hPa 0 mm - 66 W/m² -
1788549717 20.56° C 87% 1026.4 hPa 0 mm - 95 W/m² -
1788549420 20.56° C 88% 1026.4 hPa 0 mm - 93 W/m² -
1788549120 20.56° C 88% 1026.3 hPa 0 mm - 87 W/m² -
1788548818 20.56° C 88% 1026.3 hPa 0 mm - 88 W/m² -
1788548519 20.56° C 88% 1026.3 hPa 0 mm - 88 W/m² -
1788548218 20.56° C 88% 1026.2 hPa 0 mm - 95 W/m² -

* Rain latest hour (hover to see other rain measurements)
** Current wind speed in m/s (hover to see current wind gust speed)